Voltar ao catálogo

THORAD AGENA D DEB

AtivoLEO
NORAD 22532·DEBRIS·🇺🇸 United States

Lançado Apr 8, 1970 de Vandenberg Space Force Base

Loading…

Próximas Passagens (próximas 24 horas)

TLE

AtualizadoSource: Space-Track

Época: Sep 14, 2026, 00:43 UTC

1 22532U 70025QN  26257.03047189  .00000817  00000-0  97570-3 0  9999
2 22532 100.0920  90.3010 0005323  12.7161 138.9774 13.70619742664827

Acompanhe THORAD AGENA D DEB em tempo real com AllMySat

Download on the App Store